Home > Weather > Lincoln > Past weeks

Flag for U.S.A. Weather for the Past 2 Weeks in Lincoln, Nebraska, U.S.A.

Now
18 °F

Clear.


Feels Like: 2 °F
Forecast: 17 / 26 °F
Wind: 18 mph from North

Location: Lincoln Municipal Airport

Current Time: Feb 9, 2016 at 8:41:55 AM

Latest Report: Feb 9, 2016 at 6:54 AM


Visibility: 10 mi

Pressure: 30.26 "Hg

Humidity: 62%

Dew point: 7 °F

Location of LincolnLocation

Historic Weather in Lincoln — Graph

°F

Lincoln Temperature Yesterday

Maximum temperature yesterday: 34 °F (at 12:54 AM)
Minimum temperature yesterday: 29 °F (at 6:54 AM)
Average temperature yesterday: 32 °F

High & Low Weather Summary for the Past Weeks

 TemperatureHumidityPressure
High52 °F (Jan 30, 1:54 PM)100% (Feb 2, 7:54 AM)30.42 "Hg (Feb 2, 7:54 AM)
Low9 °F (Feb 4, 5:54 AM)39% (Jan 31, 3:54 PM)29.39 "Hg (Feb 2, 1:54 PM)
Average31 °F76%30.03 "Hg
* Reported Jan 25 6:54 AM — Feb 9 6:54 AM, Lincoln, Weather by CustomWeather, © 2016

Note: Actual official high and low records may vary slightly from our data, if they occured in-between our weather recording intervals... More about our weather records

Advertising

Lincoln Weather History for the Previous 24 Hours

 ConditionsComfort  
Time TempWeatherWind HumidityBarometerVisibility
6:54 AM
Tue, Feb 9
18 °FClear.18 mph62%30.26 "Hg10 mi
5:54 AM20 °FClear.21 mph62%30.23 "Hg10 mi
4:54 AM21 °FClear.17 mph62%30.21 "Hg10 mi
3:54 AM22 °FClear.18 mph66%30.19 "Hg10 mi
2:54 AM24 °FClear.17 mph62%30.18 "Hg10 mi
1:54 AM26 °FClear.23 mph60%30.16 "Hg10 mi
12:54 AM28 °FOvercast.20 mph66%30.17 "Hg10 mi
11:54 PM
Mon, Feb 8
30 °FOvercast.15 mph66%30.16 "Hg10 mi
10:54 PM31 °FOvercast.13 mph67%30.16 "Hg10 mi
9:54 PM32 °FClear.15 mph61%30.16 "Hg10 mi
8:54 PM32 °FClear.16 mph64%30.16 "Hg10 mi
7:54 PM32 °FClear.13 mph64%30.17 "Hg10 mi
6:54 PM33 °FClear.18 mph58%30.16 "Hg10 mi
5:54 PM33 °FClear.13 mph58%30.18 "Hg10 mi
4:54 PM34 °FSunny.20 mph56%30.17 "Hg10 mi
3:54 PM34 °FSunny.26 mph52%30.16 "Hg10 mi
2:54 PM34 °FSunny.24 mph52%30.16 "Hg10 mi
1:54 PM33 °FSunny.22 mph58%30.16 "Hg10 mi
12:54 PM32 °FScattered clouds.22 mph59%30.18 "Hg10 mi
11:54 AM31 °FOvercast.30 mph61%30.19 "Hg10 mi
10:54 AM30 °FOvercast.35 mph59%30.19 "Hg10 mi
9:54 AM29 °FMostly cloudy.21 mph64%30.18 "Hg10 mi
8:54 AM29 °FOvercast.29 mph61%30.16 "Hg10 mi
Weather by CustomWeather, © 2016

See weather overviewHow to use our weather pages